www.pogodaiklimat.ru

Погода и климат >> Архив погоды >> Бенин >> Kandi


ПОГОДА в Kandi

  • Прогноз погоды в Kandi
  • Монитор погоды в Kandi
  • Климат города

АРХИВ ПОГОДЫ в Kandi

Время (UTC), дата Ветер
(напр.,м/с)
 
Видим.   Явления Облачность Т
(С)
Тd
(С)
f
(%)
Тe
(С)
Тes
(С)
Комфортность P
(гПа)
Po
(гПа)
Тmin
(С)
Tmax
(С)
R
(мм)
R24
(мм)
S
(см)
03 15.10 штиль 0 8000 м 6/0
[Ci sp]
+23.0 +21.8 93 +31 +31 очень
душно
1010.6 977.9
06 15.10 штиль 0 8000 м 6/0
[Ci sp]
+22.0 +21.3 96 +29 +29 очень
душно
1012.1 979.1 +21.7
09 15.10 штиль 0 8000 м 6/0
[Ci sp]
+29.2 +22.6 68 +39 +51 опасность
солнечного
удара
1014.3 981.4
12 15.10 штиль 0 6000 м мгла 6/0
[Ci sp]
+33.3 +16.4 36 +36 +59 опасность
солнечного
удара
1011.8 979.2
15 15.10 В 5 5000 м мгла 6/0
[Ci sp]
+33.4 +15.5 34 +35 +39 душно 1010.1 977.4
18 15.10 штиль 0 5000 м мгла 6/0
[Ci sp]
+27.0 +20.3 67 +33 +33 очень
душно
1011.2 978.1 +33.8
21 15.10 штиль 0 8000 м 6/0
[Ci sp]
+24.2 +20.3 79 +30 +30 очень
душно
1012.7 979.8
00 16.10 штиль 0 10 км 9/0
[Ac As Ci sp]
+22.7 +19.3 81 +29 +29 очень
душно
1012.1 979.4
03 16.10 штиль 0 10 км 9/0
[Ac As Ci sp]
+22.0 +20.0 88 +28 +28 душно 1011.7 978.9
06 16.10 штиль 0 10 км дымка 9/0
[Ac As Ci sp]
+21.3 +20.2 93 +26 +26 душно 1014.0 980.8 +21.1
09 16.10 СВ 3 8000 м 6/1 900 м
[Cu hum Ci sp]
+29.0 +19.2 55 +34 +41 очень
душно
1015.6 982.6
12 16.10 СВ 5 5000 м мгла 6/0
[Ci sp]
+32.5 +10.9 27 +32 +41 жарко 1013.3 980.5
15 16.10 В 2 5000 м мгла 6/0
[Ci sp]
+32.8 +15.5 35 +35 +42 душно 1012.0 979.2
18 16.10 штиль 0 3500 м мгла 6/0
[Ci sp]
+27.0 +19.1 62 +32 +32 очень
душно
1013.0 979.8 +33.5
21 16.10 штиль 0 6000 м мгла 6/0
[Ci sp]
+23.7 +18.4 72 +28 +28 душно 1014.1 981.1
00 17.10 штиль 0 8000 м 6/0
[Ci sp]
+22.5 +18.8 80 +28 +28 душно 1013.3 980.5
03 17.10 штиль 0 8000 м 6/0
[Ci sp]
+20.6 +18.2 86 +24 +24 комфорт 1012.1 979.2
06 17.10 штиль 0 8000 м 9/0
[Ac trans Ci sp]
+19.7 +17.8 89 +22 +22 комфорт 1014.3 981.0 +19.5
09 17.10 В 3 8000 м мгла 6/0
[Ac trans Ci sp]
+28.6 +11.1 34 +29 +36 жарко 1015.6 982.5
12 17.10 В 3 10 км 6/0
[Ci sp]
+33.0 +11.0 26 +33 +46 жарко 1013.1 980.3
15 17.10 В 3 10 км 6/0
[Ci sp]
+33.4 +12.4 28 +34 +40 очень
жарко
1011.2 978.4
18 17.10 штиль 0 10 км 6/0
[Ci sp]
+27.2 +19.5 63 +33 +33 очень
душно
1012.4 979.2 +33.9
21 17.10 Ю 1 10 км 6/0
[Ci sp]
+23.8 +16.2 62 +27 +27 жарко 1014.2 981.2
00 18.10 штиль 0 10 км 6/0
[Ci sp]
+21.5 +17.5 78 +26 +26 душно 1013.3 980.5
03 18.10 штиль 0 10 км 6/0
[Ci sp]
+20.2 +17.8 86 +23 +23 комфорт 1012.2 979.3
06 18.10 штиль 0 8000 м 6/0
[Ac trans Ci sp]
+19.0 +17.4 90 +20 +20 1013.4 979.7 +18.6
09 18.10 СВ 1 8000 м 6/0
[Ci sp]
+28.1 +16.4 49 +32 +42 душно 1014.4 981.4
12 18.10 В 2 5000 м мгла 6/0
[Ci sp]
+33.3 +15.2 34 +35 +52 опасность
солнечного
удара
1011.9 979.1
15 18.10 штиль 0 5000 м мгла 6/0
[Ci sp]
+34.0 +13.5 29 +35 +44 очень
жарко
1010.3 977.6
18 18.10 штиль 0 6000 м мгла 6/0
[Ci sp]
+28.0 +19.6 60 +34 +34 очень
душно
1011.6 978.4 +34.5
21 18.10 штиль 0 8000 м 6/0
[Ci sp]
+24.6 +17.5 65 +29 +29 душно 1013.0 980.1
00 19.10 Ю 1 8000 м 6/0
[Ci sp]
+22.4 +18.2 77 +28 +28 душно 1012.1 979.4
03 19.10 штиль 0 8000 м 6/0
[Ci sp]
+21.2 +17.7 80 +25 +25 комфорт 1010.9 978.1
06 19.10 штиль 0 3500 м дымка 6/0
[Ci sp]
+19.2 +18.1 93 +21 +21 комфорт 1012.7 979.5 +19.0
09 19.10 Ю 3 5000 м мгла 6/0
[Ci sp]
+28.7 +20.4 61 +35 +43 очень
душно
1014.2 981.2
12 19.10 штиль 0 8000 м мгла 6/0
[Ci sp]
+34.0 +11.6 26 +34 +56 опасность
солнечного
удара
1012.0 979.3
15 19.10 СВ 2 8000 м мгла 6/0
[Ci sp]
+34.4 +11.0 24 +34 +41 очень
жарко
1010.7 978.0
18 19.10 штиль 0 5000 м мгла 6/0
[Ci sp]
+27.8 +17.4 53 +32 +32 душно 1011.7 978.5 +35.2
21 19.10 Ю 1 5000 м мгла 6/0
[Ci sp]
+24.9 +17.5 63 +29 +29 душно 1012.9 980.1
00 20.10 ЮВ 2 8000 м 6/0
[Ci sp]
+21.5 +17.5 78 +26 +26 душно 1013.3 980.4
03 20.10 Ю 2 8000 м 6/0
[Ci sp]
+21.0 +17.2 79 +26 +26 душно 1010.3 977.6
06 20.10 штиль 0 8000 м 6/0
[Ci sp]
+20.5 +17.3 82 +24 +24 комфорт 1012.0 978.9 +18.9
09 20.10 штиль 0 8000 м мгла 6/0
[Ci sp]
+29.5 +17.8 49 +34 +46 очень
душно
1013.3 980.4
12 20.10 В 3 8000 м мгла 6/0
[Ci sp]
+34.0 +15.1 32 +36 +49 душно 1011.3 978.6
15 20.10 В 3 8000 м мгла 6/0
[Ci sp]
+35.0 +13.3 27 +35 +41 очень
жарко
1009.3 976.7
18 20.10 штиль 0 8000 м мгла 6/0
[Ci sp]
+29.0 +17.4 50 +33 +33 очень
душно
1011.2 978.2 +35.5
00 21.10 Ю 1 8000 м 6/0
[Ci sp]
+23.3 +18.1 73 +29 +29 душно 1012.8 980.1
06 21.10 штиль 0 6000 м 6/0
[Ci sp]
+21.5 +20.0 91 +27 +27 душно 1012.5 979.5 +21.0
12 21.10 СВ 2 8000 м мгла 6/0
[Ci sp]
+35.1 +14.3 29 +36 +52 опасность
солнечного
удара
1011.5 978.9
18 21.10 штиль 0 8000 м мгла 6/0
[Ci sp]
+28.5 +20.0 60 +35 +35 очень
душно
1011.0 978.0 +35.8
00 22.10 ЮВ 1 8000 м 6/0
[Ci sp]
+22.4 +17.1 72 +27 +27 душно 1011.9 979.3

 

Местоположение метеостанции Kandi (Бенин): широта 11.13 долгота 2.93 высота над уровнем моря 292 м.

В архиве по умолчанию представлена погода в Kandi за последнюю неделю. Архивные данные за месяц целиком и за предыдущие месяцы, начиная с января 2011 года, Вы можете получить, выбрав интересующий диапазон дат из раскрывающегося списка и нажав кнопку "Ввод!".

Внимание! Время в таблицах - всемирное. Для получения местного времени необходимо прибавить поправку, которая в Kandi равна 1 ч.

Смотрите также архив погоды в соседних городах и на ближайших метеорологических станциях:

Погода в Gaya (Нигер) (101 км)
Погода в Natitingou (Бенин) (192 км)
Погода в Yelwa (Нигерия) (201 км)
Погода в Parakou (Бенин) (201 км)
Погода в Dosso (Нигер) (211 км)
Погода в Niamtougou (Того) (251 км)
Погода в Kara (Того) (261 км)
Погода в Niamey-Aero (Нигер) (274 км)
Погода в Mango (Того) (282 км)
Погода в Dapaon (Того) (283 км)

Пояснения к столбцам:

Ветер - указаны скорость ветра в м/с - средняя за 10 мин, порывы в срок и между сроками (в фигурных скобках) и направление, откуда дует ветер: С - северный, СВ - северо-восточный, В - восточный, ЮВ - юго-восточный, Ю - южный, ЮЗ - юго-западный, З - западный, СЗ - северо-западный.
Видимость - горизонтальная дальность видимости в метрах или километрах. При видимости от 1 до 10 км при отсутствии осадков обычно наблюдается дымка, при ухудшении видимости до 1 км и менее - туман. В сухую погоду видимость может ухудшаться дымом, пылью или мглою.
Явления - указаны атмосферные явления, наблюдавшиеся в срок или в последний час перед сроком; фигурными скобками обозначены явления, наблюдавшиеся между сроками (за 1-3 часа до срока); квадратными скобками обозначены град или гололедные отложения с указанием их диаметра в мм.
Облачность - указаны через наклонную черту общая и нижняя облачность в баллах и высота нижней границы облаков в метрах; квадратными скобками обозначены формы облаков: Ci - перистые, Cs - перисто-слоистые, Cc - перисто-кучевые, Ac - высококучевые, As - высокослоистые, Sc - слоисто-кучевые, Ns - слоисто-дождевые, Cu - кучевые, Cb - кучево-дождевые. Подробнее классификацию облаков см. в Атласе облаков (PDF).
T - Температура воздуха - температура, измеренная на высоте 2 м над землей.
Td - Температура точки росы - температура, при понижении до которой содержащийся в воздухе водяной пар достигнет насыщения.
f - Относительная влажность воздуха - влажноcть воздуха, измеренная на высоте 2 м над землей.
Te - Эффективная температура - температура, которую ощущает одетый по сезону человек в тени. Характеристика душности погоды. При расчете учитывается влияние влажности воздуха и скорости ветра на теплоощущения человека.
Tes - Эффективная температура на солнце - температура, которую ощущает человек, с поправкой на солнечный нагрев. Характеристика знойности погоды. Зависит от высоты солнца над горизонтом, облачности и скорости ветра. Ночью, в пасмурную погоду, а также при ветре 12 м/с и более поправка равна нулю.
P - Атмосферное давление - приведенное к уровню моря атмосферное давление.
Po - Атмосферное давление - измеренное на уровне метеостанции атмосферное давление.
Tmin - Минимальная температура - минимум температуры воздуха на высоте 2 м над землей.
Tmax - Максимальная температура - максимум температуры воздуха на высоте 2 м над землей.
R - Количество осадков - Количество выпавших осадков за период времени, мм. При наведении курсора мыши на число - период времени, за который выпало указанное количество осадков.
R24 - Количество осадков - Количество выпавших осадков за 24 часа, мм.
S - Снежный покров - Высота снежного покрова, см. При наведении курсора мыши на число - состояние снежного покрова и степень покрытия местности в баллах.